Weather History for KJFZ - September, 2013

Change the Weather History Date:

Friday, September 13, 2013

  Actual Average (KBLF) Record (KBLF)
Temperature  
Mean Temperature 62 °F 67 °F  
Max Temperature 70 °F 76 °F 92 °F (1998)
Min Temperature 54 °F 58 °F 39 °F (1985)
Degree Days  
Heating Degree Days 2 2  
Month to date heating degree days 12  
Since 1 July heating degree days 18  
Cooling Degree Days 0 3  
Month to date cooling degree days 60  
Year to date cooling degree days 794  
Growing Degree Days 12 (Base 50)    
Moisture  
Dew Point 55 °F    
Average Humidity 73    
Maximum Humidity 94    
Minimum Humidity 45    
Precipitation  
Precipitation 0.00 in 0.11 in 2.59 in (1966)
Month to date precipitation 1.31  
Year to date precipitation 29.70  
Snow  
Snow 0.00 in - - ()
Month to date snowfall  
Since 1 July snowfall  
Since 1 September snowfall  
Snow Depth -    
Sea Level Pressure  
Sea Level Pressure 29.98 in    
Wind  
Wind Speed 7 mph (NW)    
Max Wind Speed 14 mph    
Max Gust Speed 22 mph    
Visibility 9 miles    
Events      
T = Trace of Precipitation, MM = Missing Value Source: NWS Daily Summary

Daily Weather History Graph

Daily Weather History Graph

Search for Another Location

Airport or City:

Trip Planner

Search our weather history database for the weather conditions in past years. The results will help you decide how hot, cold, wet, or windy it might be!

Date:

Astronomy

Sep. 13, 2013 Rise Set
Actual Time 7:07 AM EDT 7:37 PM EDT
Civil Twilight 6:41 AM EDT 8:03 PM EDT
Nautical Twilight 6:11 AM EDT 8:34 PM EDT
Astronomical Twilight 5:39 AM EDT 9:05 PM EDT
Moon 3:20 PM EDT (9/13) 12:42 AM EDT (9/13)
Length of Visible Light 13h 21m
Length of Day
12h 29m
First Quarter, 61% of the Moon is Illuminated
Sep 13
First Quarter
Sep 19
Full
Sep 26
Last Quarter
Oct 4
New
Oct 11
First Quarter

Hourly Weather History & Observations

Time (EDT) Temp. Dew Point Humidity Pressure Visibility Wind Dir Wind Speed Gust Speed Precip Events Conditions
12:15 AM 67.1 °F 63.9 °F 89% 29.99 in 10.0 mi WSW 6.9 mph - N/A   Overcast
12:35 AM 66.7 °F 63.9 °F 90% 29.98 in 7.0 mi West 9.2 mph - N/A   Overcast
12:55 AM 66.6 °F 63.9 °F 91% 29.98 in 7.0 mi WSW 6.9 mph - N/A   Overcast
1:15 AM 66.2 °F 63.7 °F 92% 29.96 in 5.0 mi WSW 5.8 mph - N/A   Overcast
1:35 AM 66.2 °F 63.9 °F 92% 29.96 in 5.0 mi West 6.9 mph - N/A   Overcast
1:55 AM 66.2 °F 64.0 °F 93% 29.97 in 1.8 mi West 6.9 mph - N/A   Overcast
2:15 AM 66.0 °F 64.2 °F 94% 29.97 in 2.5 mi West 4.6 mph - N/A   Overcast
2:35 AM 66.2 °F 63.9 °F 92% 29.96 in 3.0 mi West 8.1 mph - N/A   Overcast
2:55 AM 66.2 °F 63.9 °F 92% 29.96 in 3.0 mi West 6.9 mph - N/A   Overcast
3:15 AM 66.0 °F 64.0 °F 93% 29.96 in 1.5 mi West 8.1 mph - N/A   Overcast
3:35 AM 65.8 °F 63.9 °F 93% 29.96 in 3.0 mi WSW 5.8 mph - N/A   Overcast
3:55 AM 66.0 °F 63.9 °F 93% 29.96 in 4.0 mi West 8.1 mph - N/A   Overcast
4:15 AM 65.8 °F 63.7 °F 93% 29.95 in 4.0 mi West 8.1 mph - N/A   Overcast
4:35 AM 66.2 °F 63.7 °F 92% 29.94 in 5.0 mi West 6.9 mph - N/A   Overcast
4:55 AM 66.2 °F 63.1 °F 90% 29.94 in 7.0 mi WNW 5.8 mph - N/A   Overcast
5:15 AM 66.2 °F 62.6 °F 88% 29.94 in 10.0 mi WNW 8.1 mph - N/A   Overcast
5:35 AM 65.8 °F 61.9 °F 87% 29.94 in 10.0 mi WNW 5.8 mph - N/A   Overcast
5:55 AM 65.7 °F 61.7 °F 87% 29.95 in 10.0 mi Calm Calm - N/A   Overcast
6:15 AM 65.3 °F 61.7 °F 88% 29.94 in 10.0 mi West 5.8 mph - N/A   Overcast
6:35 AM 64.9 °F 61.5 °F 89% 29.96 in 10.0 mi WNW 5.8 mph - N/A   Overcast
6:55 AM 64.6 °F 61.3 °F 89% 29.96 in 10.0 mi WNW 6.9 mph - N/A   Overcast
7:15 AM 64.2 °F 61.0 °F 89% 29.96 in 10.0 mi WNW 5.8 mph - N/A   Overcast
7:35 AM 64.4 °F 60.8 °F 88% 29.97 in 10.0 mi WNW 6.9 mph - N/A   Overcast
7:55 AM 63.9 °F 60.4 °F 89% 29.97 in 10.0 mi WNW 5.8 mph - N/A   Overcast
8:15 AM 63.9 °F 60.3 °F 88% 29.97 in 10.0 mi NW 3.5 mph - N/A   Overcast
8:35 AM 64.4 °F 59.9 °F 85% 29.97 in 10.0 mi NW 4.6 mph - N/A   Overcast
8:55 AM 65.1 °F 59.2 °F 81% 29.96 in 10.0 mi NNW 10.4 mph - N/A   Overcast
9:15 AM 64.4 °F 59.2 °F 83% 29.97 in 10.0 mi NW 8.1 mph 18.4 mph N/A   Overcast
9:35 AM 64.8 °F 57.0 °F 76% 29.97 in 10.0 mi NNW 13.8 mph 21.9 mph N/A   Mostly Cloudy
9:55 AM 65.8 °F 55.8 °F 70% 29.98 in 10.0 mi NNW 12.7 mph 18.4 mph N/A   Scattered Clouds
10:15 AM 64.8 °F 54.7 °F 70% 29.98 in 10.0 mi North 11.5 mph 17.3 mph N/A   Scattered Clouds
10:35 AM 66.2 °F 54.7 °F 66% 29.98 in 10.0 mi NNW 9.2 mph 18.4 mph N/A   Scattered Clouds
10:55 AM 66.2 °F 53.4 °F 63% 29.98 in 10.0 mi NNW 9.2 mph 17.3 mph N/A   Scattered Clouds
11:15 AM 66.9 °F 53.6 °F 62% 29.98 in 10.0 mi NNW 6.9 mph - N/A   Mostly Cloudy
11:35 AM 65.1 °F 53.6 °F 66% 29.98 in 10.0 mi NNW 8.1 mph - N/A   Overcast
11:55 AM 65.5 °F 54.3 °F 67% 29.98 in 10.0 mi North 6.9 mph 17.3 mph N/A   Overcast
12:15 PM 66.7 °F 53.2 °F 62% 29.98 in 10.0 mi NW 6.9 mph - N/A   Mostly Cloudy
12:35 PM 66.0 °F 53.4 °F 64% 29.98 in 10.0 mi NNW 12.7 mph 17.3 mph N/A   Mostly Cloudy
12:55 PM 67.5 °F 50.4 °F 54% 29.99 in 10.0 mi NNW 10.4 mph - N/A   Scattered Clouds
1:15 PM 65.5 °F 52.0 °F 62% 29.99 in 10.0 mi North 8.1 mph 18.4 mph N/A   Mostly Cloudy
1:35 PM 67.8 °F 50.2 °F 53% 29.98 in 10.0 mi NW 5.8 mph - N/A   Mostly Cloudy
1:55 PM 67.3 °F 49.1 °F 52% 29.98 in 10.0 mi North 9.2 mph - N/A   Scattered Clouds
2:15 PM 66.7 °F 47.5 °F 50% 29.98 in 10.0 mi NNW 5.8 mph - N/A   Mostly Cloudy
2:35 PM 68.2 °F 48.6 °F 49% 29.98 in 10.0 mi NNW 8.1 mph 16.1 mph N/A   Scattered Clouds
2:55 PM 69.4 °F 49.6 °F 49% 29.97 in 10.0 mi WNW 11.5 mph - N/A   Scattered Clouds
3:15 PM 69.6 °F 48.9 °F 48% 29.97 in 10.0 mi WNW 5.8 mph - N/A   Mostly Cloudy
3:35 PM 70.0 °F 50.5 °F 50% 29.97 in 10.0 mi NW 10.4 mph - N/A   Mostly Cloudy
3:55 PM 67.1 °F 48.2 °F 51% 29.97 in 10.0 mi NNW 8.1 mph - N/A   Scattered Clouds
4:15 PM 69.1 °F 48.0 °F 47% 29.97 in 10.0 mi North 5.8 mph - N/A   Mostly Cloudy
4:35 PM 69.8 °F 48.7 °F 47% 29.97 in 10.0 mi WNW 5.8 mph - N/A   Mostly Cloudy
4:55 PM 68.9 °F 46.9 °F 45% 29.97 in 10.0 mi NW 8.1 mph - N/A   Mostly Cloudy
5:15 PM 65.3 °F 48.2 °F 54% 29.98 in 10.0 mi NW 6.9 mph - N/A   Scattered Clouds
5:35 PM 65.3 °F 48.4 °F 54% 29.98 in 10.0 mi NW 9.2 mph - N/A   Scattered Clouds
5:55 PM 66.0 °F 47.7 °F 52% 29.98 in 10.0 mi NNW 9.2 mph 16.1 mph N/A   Clear
6:15 PM 65.5 °F 48.7 °F 55% 29.98 in 10.0 mi NW 9.2 mph - N/A   Clear
6:35 PM 64.4 °F 48.2 °F 56% 29.98 in 10.0 mi NNW 8.1 mph - N/A   Clear
6:55 PM 63.7 °F 48.9 °F 59% 29.99 in 10.0 mi NW 8.1 mph - N/A   Clear
7:15 PM 62.2 °F 48.4 °F 60% 29.99 in 10.0 mi NNW 9.2 mph - N/A   Clear
7:35 PM 61.0 °F 48.0 °F 62% 30.00 in 10.0 mi NNW 5.8 mph - N/A   Clear
7:55 PM 59.7 °F 49.1 °F 68% 30.01 in 10.0 mi NNW 4.6 mph - N/A   Clear
8:15 PM 59.2 °F 49.1 °F 69% 30.01 in 10.0 mi NNW 5.8 mph - N/A   Clear
8:35 PM 58.6 °F 49.1 °F 71% 30.02 in 10.0 mi NNW 4.6 mph - N/A   Clear
8:55 PM 58.1 °F 49.3 °F 72% 30.03 in 10.0 mi NNW 6.9 mph - N/A   Scattered Clouds
9:15 PM 57.9 °F 48.9 °F 72% 30.04 in 10.0 mi NNW 4.6 mph - N/A   Overcast
9:35 PM 57.6 °F 49.3 °F 74% 30.04 in 10.0 mi NNW 4.6 mph - N/A   Overcast
9:55 PM 57.4 °F 49.3 °F 74% 30.04 in 10.0 mi NNW 5.8 mph - N/A   Overcast
10:15 PM 56.7 °F 49.3 °F 76% 30.05 in 10.0 mi North 4.6 mph - N/A   Mostly Cloudy
10:35 PM 56.3 °F 49.1 °F 77% 30.05 in 10.0 mi Calm Calm - N/A   Mostly Cloudy
10:55 PM 55.6 °F 49.1 °F 79% 30.06 in 10.0 mi NNW 4.6 mph - N/A   Mostly Cloudy
11:15 PM 55.6 °F 48.9 °F 78% 30.06 in 10.0 mi North 4.6 mph - N/A   Scattered Clouds
11:35 PM 55.0 °F 48.6 °F 79% 30.06 in 10.0 mi Calm Calm - N/A   Scattered Clouds
11:55 PM 54.7 °F 48.6 °F 80% 30.06 in 10.0 mi NNW 3.5 mph - N/A   Mostly Cloudy